Miscellaneous Local Product
Issued by NWS North Platte, NE

Home | Current Version | Previous Version | Text Only | Print | Product List | Glossary On
Versions: 1 2 3 4 5 6 7 8 9 10 11 12 13 14 15 16 17 18 19 20 21 22 23 24 25 26 27 28 29 30 31 32 33 34 35 36 37 38 39 40 41 42 43 44 45 46 47 48 49 50
000
AXUS43 KLBF 282210
MISLBF


WESTERN AND NORTH CENTRAL NEBRASKA HOURLY WEATHER ROUNDUP
NATIONAL WEATHER SERVICE NORTH PLATTE NE
400 PM CST SAT FEB 28 2015

***STATIONS NOT REPORTING VARIABLES SUCH AS SKY/WEATHER OR
PRESSURE ARE PROVIDED BY THE NEBRASKA DEPARTMENT OF
ROADS...RAWS...AND APRS NETWORKS...AND ARE NOT UNDER
NATIONAL WEATHER SERVICE QUALITY CONTROL***

...OBSERVATIONS IN AND NEAR THE EASTERN PANHANDLE OF NEBRASKA...

CITY           SKY/WX    TMP DP  RH WIND       PRES   REMARKS
PINE RIDGE     SUNNY     30   5  34 CALM      30.07S
CHADRON        PTSUNNY   28  13  53 CALM      30.08S
ALLIANCE       SUNNY     31  10  41 E12       30.01F WCI  22
SIDNEY         SUNNY     27  13  55 S3        30.00F
WHITECLAY        N/A     29   8  40 CALM        N/A
CRESCENT LAKE    N/A     31   8  37 E5          N/A  WCI  26
LISCO            N/A     34   5  29 CALM        N/A
BIG SPRINGS      N/A     30  13  49 E5          N/A  WCI  25
LEWELLEN         N/A     27   3  36 E6          N/A  WCI  20
$$

...OBSERVATIONS IN NORTH CENTRAL NEBRASKA...

CITY           SKY/WX    TMP DP  RH WIND       PRES   REMARKS
VALENTINE      MOSUNNY   34  10  37 W7        30.10R WCI  28
THEDFORD       SUNNY     32  12  44 W6        30.11S WCI  26
AINSWORTH      SUNNY     32  10  40 W7        30.11S WCI  25
O`NEILL        MOSUNNY   32  11  41 SW12      30.16F WCI  23
ORD            PTSUNNY   30   8  39 S8        30.17F WCI  22
BROKEN BOW     PTSUNNY   30  11  45 SW10      30.15S WCI  21
BROWNLEE         N/A     30   9  40 SW5         N/A  WCI  25
SPRINGVIEW       N/A     34  14  43 SW3G13      N/A
BREWSTER         N/A     34  13  41 W5          N/A  WCI  30
ROSE             N/A     35  18  49 S7          N/A  WCI  30
NEWPORT          N/A     33  14  44 W10         N/A  WCI  25
SARGENT          N/A     30  12  48 SW6         N/A  WCI  24
COMSTOCK         N/A     32  10  40 S8          N/A  WCI  25
CHAMBERS         N/A     32  11  41 S5G13       N/A  WCI  27
EWING            N/A     32  13  45 S12G18      N/A  WCI  23
$$

...OBSERVATIONS IN SOUTHWEST NEBRASKA AND FAR NORTHEAST COLORADO...

CITY           SKY/WX    TMP DP  RH WIND       PRES   REMARKS
WRAY           CLOUDY    24  13  62 SE6       30.06R WCI  17
IMPERIAL         N/A     26  10  50 VRB7      30.08S WCI  18
OGALLALA       SUNNY     30  11  45 S5        30.07S WCI  25
NORTH PLATTE   PTSUNNY   29  10  45 S7        30.12F WCI  22
MCCOOK         CLOUDY    27  12  53 SE12      30.15S WCI  17
LEXINGTON      PTSUNNY   27  12  53 SW9       30.18S WCI  18
PAXTON           N/A     29  14  53 S3          N/A
BRADY            N/A     28  11  50 CALM        N/A
GOTHENBURG       N/A     27  11  50 S5          N/A  WCI  22
CALLAWAY         N/A     28  14  54 S7          N/A  WCI  21
$$

...NORTH PLATTE AREA...

CITY           SKY/WX    TMP DP  RH WIND       PRES   REMARKS
AIRPORT        PTSUNNY   29  10  45 S7        30.12F WCI  22
DOWNTOWN         N/A     27  11  50 S5G12       N/A  WCI  22
$$

...SOME WEATHER OBSERVATIONS FROM AROUND THE REGION...

CITY           SKY/WX    TMP DP  RH WIND       PRES   REMARKS
DENVER         PTSUNNY   21  11  65 CALM      29.94R
LARAMIE        MOSUNNY   20   9  62 SE17      29.78S WCI   5
CHEYENNE       CLOUDY    21  11  65 NE9       29.89F WCI  11
SCOTTSBLUFF    SUNNY     33  10  38 VRB3      30.01F
RAPID CITY     SUNNY     22  11  62 N18       30.09R WCI   7
PIERRE         SUNNY     31   6  35 NW16      30.12R WCI  20
WINNER         FAIR      37   7  28 NW14      30.11S WCI  28
SIOUX FALLS    PTSUNNY   27  13  55 S16       30.22F WCI  15
OMAHA          LGT SNOW  23  17  78 S10       30.37F FOG     WCI  12
GRAND ISLAND   PTSUNNY   26  12  55 S14G23    30.25F WCI  14
KANSAS CITY    LGT SNOW  23  18  81 SE7       30.39F WCI  15
WICHITA        CLOUDY    22  16  78 S6        30.31F HAZE    WCI  14
HAYS           CLOUDY    21   9  58 S9        30.24S WCI  11
LIBERAL        CLOUDY    23  16  74 SE10      30.14S WCI  12
GOODLAND       LGT SNOW  19  13  77 S9        30.08S WCI   8
$$



USA.gov is the U.S. government's official web portal to all federal, state and local government web resources and services.